Torna al catalogo

STARLINK-11608

AttivoComunicazioniVLEO
NORAD 63275·PAYLOAD·🇺🇸 United States

Lanciato Mar 15, 2025 da Cape Canaveral Space Force Station

Loading…

Prossimi Passaggi (prossime 24 ore)

TLE

AggiornatoSource: CelesTrak SupGP

Epoca: Sep 15, 2026, 02:31 UTC

1 63275C 25053L   26258.10534722 -.00075657  00000+0 -58742-3 0  2583
2 63275  43.0012  50.3058 0001788 273.5697  19.3849 15.70883846    14

Traccia STARLINK-11608 in tempo reale con AllMySat

Download on the App Store